| time (UTC) | temp F | wind direction | speed MPH | gust MPH | rain 1hr in | rain 24hr in | rain mn in | humidity % | barometer mb |
| 20260509174602 | 58 | 355 | 1.0 | 4.0 | 0.00 | 0.00 | 0.00 | 74 | 1023.3 |
| 20260509173059 | 57 | 328 | 1.0 | 4.0 | 0.00 | 0.00 | 0.00 | 78 | 1023.4 |
| 20260509171552 | 56 | 342 | 1.0 | 5.0 | 0.00 | 0.00 | 0.00 | 82 | 1023.5 |
| 20260509170046 | 55 | 329 | 4.0 | 6.0 | 0.00 | 0.00 | 0.00 | 82 | 1023.6 |
| 20260509164546 | 55 | 342 | 2.0 | 6.0 | 0.00 | 0.00 | 0.00 | 83 | 1023.7 |
| 20260509163045 | 56 | 17 | 2.0 | 4.0 | 0.00 | 0.00 | 0.00 | 82 | 1023.7 |
| 20260509161540 | 55 | 321 | 2.0 | 5.0 | 0.00 | 0.00 | 0.00 | 82 | 1024.0 |
| 20260509160039 | 55 | 313 | 2.0 | 4.0 | 0.00 | 0.00 | 0.00 | 82 | 1024.2 |
| 20260509154537 | 55 | 336 | 1.0 | 5.0 | 0.00 | 0.00 | 0.00 | 82 | 1024.2 |
| 20260509153036 | 55 | 360 | 0.0 | 5.0 | 0.00 | 0.00 | 0.00 | 82 | 1024.2 |
| 20260509151534 | 55 | 57 | 0.0 | 1.0 | 0.00 | 0.00 | 0.00 | 83 | 1024.4 |
| 20260509150031 | 54 | 326 | 1.0 | 4.0 | 0.00 | 0.00 | 0.00 | 84 | 1024.5 |
| 20260509144530 | 54 | 320 | 1.0 | 4.0 | 0.00 | 0.00 | 0.00 | 84 | 1024.5 |
| 20260509143031 | 53 | 34 | 1.0 | 3.0 | 0.00 | 0.00 | 0.00 | 85 | 1024.6 |
| 20260509141529 | 52 | 165 | 0.0 | 0.0 | 0.00 | 0.00 | 0.00 | 85 | 1024.8 |
| 20260509140044 | 52 | 165 | 0.0 | 0.0 | 0.00 | 0.00 | 0.00 | 86 | 1024.9 |
| 20260509134526 | 52 | 165 | 0.0 | 0.0 | 0.00 | 0.00 | 0.00 | 85 | 1024.8 |
| 20260509133026 | 51 | 165 | 0.0 | 0.0 | 0.00 | 0.00 | 0.00 | 86 | 1024.8 |
| 20260509131534 | 51 | 165 | 0.0 | 0.0 | 0.00 | 0.00 | 0.00 | 86 | 1024.7 |
| 20260509130028 | 51 | 165 | 0.0 | 0.0 | 0.00 | 0.00 | 0.00 | 86 | 1024.7 |
| 20260509124524 | 51 | 165 | 0.0 | 0.0 | 0.00 | 0.00 | 0.00 | 86 | 1024.7 |
| 20260509123025 | 51 | 165 | 0.0 | 0.0 | 0.00 | 0.00 | 0.00 | 86 | 1024.8 |
| 20260509121524 | 50 | 163 | 0.0 | 0.0 | 0.00 | 0.00 | 0.00 | 86 | 1024.8 |
| 20260509120020 | 51 | 163 | 0.0 | 0.0 | 0.00 | 0.00 | 0.00 | 85 | 1024.9 |
| 20260509114520 | 51 | 163 | 0.0 | 2.0 | 0.00 | 0.00 | 0.00 | 84 | 1024.9 |
| 20260509113018 | 51 | 162 | 0.0 | 0.0 | 0.00 | 0.00 | 0.00 | 83 | 1024.9 |
| 20260509111518 | 51 | 162 | 0.0 | 0.0 | 0.00 | 0.00 | 0.00 | 83 | 1024.9 |
| 20260509110018 | 51 | 162 | 0.0 | 0.0 | 0.00 | 0.00 | 0.00 | 83 | 1024.9 |
| 20260509104517 | 51 | 162 | 0.0 | 2.0 | 0.00 | 0.00 | 0.00 | 83 | 1024.9 |
| 20260509103015 | 52 | 162 | 1.0 | 3.0 | 0.00 | 0.00 | 0.00 | 81 | 1024.8 |
| 20260509101514 | 52 | 162 | 0.0 | 0.0 | 0.00 | 0.00 | 0.00 | 81 | 1024.8 |
| 20260509100013 | 52 | 162 | 0.0 | 0.0 | 0.00 | 0.00 | 0.00 | 80 | 1024.7 |
| 20260509094513 | 53 | 162 | 0.0 | 0.0 | 0.00 | 0.00 | 0.00 | 80 | 1024.6 |
| 20260509093012 | 53 | 162 | 0.0 | 3.0 | 0.00 | 0.00 | 0.00 | 80 | 1024.6 |
| 20260509091511 | 53 | 162 | 0.0 | 2.0 | 0.00 | 0.00 | 0.00 | 79 | 1024.7 |
| 20260509090013 | 52 | 172 | 0.0 | 4.0 | 0.00 | 0.00 | 0.00 | 79 | 1024.7 |
| 20260509084514 | 52 | 169 | 1.0 | 3.0 | 0.00 | 0.00 | 0.00 | 79 | 1024.7 |
| 20260509083008 | 52 | 165 | 2.0 | 4.0 | 0.00 | 0.00 | 0.00 | 79 | 1024.8 |
| 20260509081508 | 52 | 173 | 3.0 | 4.0 | 0.00 | 0.00 | 0.00 | 79 | 1024.8 |
| 20260509080007 | 52 | 174 | 1.0 | 4.0 | 0.00 | 0.00 | 0.00 | 79 | 1024.7 |
| 20260509074506 | 52 | 175 | 0.0 | 2.0 | 0.00 | 0.00 | 0.00 | 79 | 1024.7 |
| 20260509073005 | 52 | 176 | 1.0 | 2.0 | 0.00 | 0.00 | 0.00 | 79 | 1024.7 |
| 20260509071504 | 52 | 178 | 1.0 | 3.0 | 0.00 | 0.00 | 0.00 | 79 | 1024.7 |
| 20260509070001 | 52 | 178 | 1.0 | 3.0 | 0.00 | 0.00 | 0.00 | 80 | 1024.6 |
| 20260509064502 | 51 | 179 | 0.0 | 0.0 | 0.00 | 0.00 | 0.00 | 80 | 1024.6 |
| 20260509063112 | 52 | 179 | 0.0 | 0.0 | 0.00 | 0.00 | 0.00 | 79 | 1024.6 |
| 20260509061600 | 52 | 180 | 0.0 | 0.0 | 0.00 | 0.00 | 0.00 | 78 | 1024.6 |
| 20260509054613 | 53 | 181 | 0.0 | 2.0 | 0.00 | 0.00 | 0.00 | 78 | 1024.6 |
| 20260509053134 | 53 | 167 | 0.0 | 0.0 | 0.00 | 0.00 | 0.00 | 78 | 1024.6 |
| 20260509051557 | 53 | 169 | 1.0 | 3.0 | 0.00 | 0.00 | 0.00 | 78 | 1024.6 |
| 20260509050057 | 53 | 170 | 1.0 | 4.0 | 0.00 | 0.00 | 0.00 | 77 | 1024.5 |
| 20260509044556 | 53 | 161 | 1.0 | 4.0 | 0.00 | 0.00 | 0.00 | 76 | 1024.6 |
| 20260509043107 | 53 | 173 | 2.0 | 4.0 | 0.00 | 0.00 | 0.00 | 76 | 1024.4 |
| 20260509041602 | 53 | 170 | 2.0 | 5.0 | 0.00 | 0.00 | 0.00 | 76 | 1024.3 |
| 20260509034602 | 53 | 190 | 3.0 | 5.0 | 0.00 | 0.00 | 0.00 | 76 | 1024.0 |
| 20260509033048 | 53 | 167 | 2.0 | 5.0 | 0.00 | 0.00 | 0.00 | 77 | 1023.8 |
| 20260509031559 | 53 | 173 | 2.0 | 7.0 | 0.00 | 0.00 | 0.00 | 76 | 1023.7 |
| 20260509030046 | 54 | 202 | 3.0 | 7.0 | 0.00 | 0.00 | 0.00 | 77 | 1023.6 |
| 20260509024545 | 54 | 188 | 2.0 | 4.0 | 0.00 | 0.00 | 0.00 | 76 | 1023.5 |
| 20260509023048 | 54 | 190 | 1.0 | 5.0 | 0.00 | 0.00 | 0.00 | 74 | 1023.4 |
| 20260509021544 | 54 | 161 | 1.0 | 3.0 | 0.00 | 0.00 | 0.00 | 74 | 1023.5 |
| 20260509020051 | 55 | 146 | 0.0 | 4.0 | 0.00 | 0.00 | 0.00 | 74 | 1023.5 |
| 20260509014546 | 55 | 170 | 0.0 | 4.0 | 0.00 | 0.00 | 0.00 | 75 | 1023.5 |
| 20260509013050 | 55 | 199 | 2.0 | 7.0 | 0.00 | 0.00 | 0.00 | 75 | 1023.4 |
| 20260509011542 | 56 | 137 | 2.0 | 5.0 | 0.00 | 0.00 | 0.00 | 74 | 1023.4 |
| 20260509010051 | 56 | 141 | 1.0 | 5.0 | 0.00 | 0.00 | 0.00 | 73 | 1023.3 |
| 20260509004541 | 56 | 219 | 1.0 | 4.0 | 0.00 | 0.00 | 0.00 | 73 | 1023.3 |
| 20260509003043 | 56 | 152 | 0.0 | 5.0 | 0.00 | 0.00 | 0.00 | 73 | 1023.3 |
| 20260509001540 | 56 | 203 | 1.0 | 6.0 | 0.00 | 0.00 | 0.00 | 73 | 1023.4 |
| 20260509000040 | 56 | 238 | 4.0 | 8.0 | 0.00 | 0.00 | 0.00 | 72 | 1023.4 |
| 20260508234540 | 56 | 194 | 2.0 | 7.0 | 0.00 | 0.00 | 0.00 | 72 | 1023.4 |
| 20260508233038 | 57 | 304 | 3.0 | 6.0 | 0.00 | 0.00 | 0.00 | 71 | 1023.3 |
| 20260508231538 | 56 | 223 | 1.0 | 5.0 | 0.00 | 0.00 | 0.00 | 72 | 1023.3 |
| 20260508230047 | 55 | 293 | 4.0 | 9.0 | 0.00 | 0.00 | 0.00 | 72 | 1023.1 |
| 20260508224541 | 56 | 202 | 4.0 | 9.0 | 0.00 | 0.00 | 0.00 | 72 | 1023.2 |
| 20260508223038 | 56 | 200 | 2.0 | 7.0 | 0.00 | 0.00 | 0.00 | 72 | 1023.0 |
| 20260508221543 | 56 | 251 | 3.0 | 9.0 | 0.00 | 0.00 | 0.00 | 71 | 1023.1 |
| 20260508220033 | 57 | 304 | 3.0 | 11.0 | 0.00 | 0.00 | 0.00 | 71 | 1023.0 |
| 20260508214531 | 56 | 249 | 3.0 | 8.0 | 0.00 | 0.00 | 0.00 | 73 | 1023.0 |
| 20260508213029 | 55 | 188 | 4.0 | 11.0 | 0.00 | 0.00 | 0.00 | 73 | 1023.0 |
| 20260508211528 | 56 | 219 | 4.0 | 10.0 | 0.00 | 0.00 | 0.00 | 70 | 1022.9 |
| 20260508210026 | 57 | 240 | 3.0 | 7.0 | 0.00 | 0.00 | 0.00 | 72 | 1022.8 |
| 20260508204524 | 55 | 200 | 5.0 | 12.0 | 0.00 | 0.00 | 0.00 | 74 | 1022.7 |
| 20260508203023 | 54 | 199 | 3.0 | 9.0 | 0.00 | 0.00 | 0.00 | 75 | 1022.7 |
| 20260508201522 | 55 | 167 | 4.0 | 13.0 | 0.00 | 0.00 | 0.00 | 73 | 1022.6 |
| 20260508200023 | 55 | 122 | 2.0 | 11.0 | 0.00 | 0.00 | 0.00 | 74 | 1022.5 |
| 20260508194518 | 55 | 336 | 4.0 | 10.0 | 0.00 | 0.00 | 0.00 | 73 | 1022.4 |
| 20260508193016 | 56 | 211 | 4.0 | 8.0 | 0.00 | 0.00 | 0.00 | 73 | 1022.3 |
| 20260508191511 | 55 | 171 | 2.0 | 9.0 | 0.00 | 0.00 | 0.00 | 77 | 1022.2 |
| 20260508190008 | 54 | 202 | 3.0 | 12.0 | 0.00 | 0.00 | 0.00 | 79 | 1022.1 |
| 20260508184508 | 53 | 196 | 4.0 | 8.0 | 0.00 | 0.00 | 0.00 | 80 | 1022.2 |
| 20260508183006 | 52 | 210 | 3.0 | 9.0 | 0.00 | 0.00 | 0.00 | 80 | 1022.0 |
| 20260508181513 | 52 | 167 | 3.0 | 8.0 | 0.00 | 0.00 | 0.00 | 80 | 1021.9 |
| 20260508180003 | 52 | 197 | 2.0 | 7.0 | 0.00 | 0.00 | 0.00 | 80 | 1021.7 |